Probability
42 55 81 74 68 65 65 65 61 61 61 58 55 58 61 58 65 68 71 71 68 71 65 71 68 58 58 61 65 61 61 58 55 55 61 55 52 61 55 45 45 42 55
45 55 84 74 65 65 71 61 65 61 61 55 58 61 61 65 61 61 68 61 61 61 68 71 65 55 58 58 55 52 52 52 58 58 65 45 52 65 61 48 45 39 55
42 52 65 77 68 65 68 65 65 58 58 65 68 61 58 52 58 58 58 55 58 61 71 68 65 61 58 58 48 48 48 48 52 61 55 45 45 68 61 55 48 55 55
42 39 61 81 77 61 65 65 68 68 68 61 61 61 52 48 55 52 48 52 55 52 48 58 68 61 58 45 39 45 45 48 42 52 39 29 26 58 58 55 45 52 52
32 52 71 84 77 71 58 61 68 61 68 65 58 58 58 58 58 52 42 42 45 39 48 39 58 61 52 45 32 39 42 58 55 45 26 19 32 61 65 48 35 42 45
39 58 68 81 74 68 58 58 55 55 55 58 58 55 52 45 52 55 48 45 52 48 45 45 58 52 45 45 42 35 42 58 52 35 35 23 32 65 68 48 45 42 35
29 45 61 87 81 68 58 42 48 52 58 58 61 55 55 55 55 55 52 52 52 55 48 39 48 45 42 45 39 39 42 48 42 26 23 19 42 68 65 52 42 39 39
39 45 65 84 81 68 55 48 48 48 58 58 65 58 55 55 55 52 45 42 48 48 48 39 39 39 39 42 42 42 42 39 16 13 19 26 58 55 52 45 42 39 39
42 42 42 52 77 77 71 61 58 61 58 61 65 55 55 55 58 45 39 35 42 32 35 39 39 35 42 45 48 48 48 45 16 19 19 23 45 45 42 48 42 42 39
29 35 35 45 58 45 61 74 61 61 68 61 58 52 58 58 58 48 35 39 39 32 26 39 39 35 45 42 52 52 45 52 19 19 19 26 45 39 32 39 42 42 39
35 35 35 45 48 45 52 58 65 71 61 65 58 58 58 52 48 42 39 42 35 35 32 32 35 39 48 55 65 55 39 29 13 16 19 29 35 35 32 35 39 35 42
35 35 32 39 42 45 48 52 52 39 58 61 61 71 65 65 55 39 42 35 35 45 42 45 48 52 55 35 45 52 39 35 16 23 26 32 32 29 32 35 32 39 39
35 42 32 45 42 45 48 52 52 52 68 58 58 65 68 58 55 52 39 45 55 45 42 45 48 45 35 45 48 45 35 29 19 13 26 32 32 29 32 39 42 39 39
35 35 42 39 42 45 48 61 58 58 58 58 61 61 71 68 77 65 65 52 48 52 48 48 45 42 42 45 45 42 39 32 23 23 26 32 32 35 35 39 39 39 42
35 32 39 39 61 65 74 71 65 71 58 55 68 65 68 71 68 68 71 71 55 55 58 55 52 45 45 45 45 39 39 35 29 23 26 35 35 39 39 42 42 42 42
39 42 48 52 71 68 68 74 74 58 77 61 68 68 65 71 81 74 71 74 65 58 65 55 52 48 52 52 42 35 29 35 29 26 26 32 35 39 42 42 42 48 45
52 58 65 55 61 71 68 68 74 68 58 65 68 61 68 68 74 77 71 68 74 55 58 61 58 55 48 42 42 42 39 39 32 32 23 26 29 32 39 42 45 45 42
48 74 65 45 65 77 74 74 61 55 61 65 71 65 65 61 71 77 71 68 68 55 58 61 61 65 48 45 42 45 42 45 35 35 32 35 23 26 26 42 45 45 42
68 71 71 71 74 71 68 74 68 65 71 68 71 65 65 65 65 74 74 74 61 68 65 55 68 61 45 45 42 45 42 42 39 29 39 32 32 32 26 32 35 39 39
74 74 71 71 74 71 71 68 71 68 65 68 74 71 68 65 65 74 65 71 61 61 68 65 65 55 58 52 35 39 42 42 42 32 26 29 35 29 29 19 26 26 29
65 74 74 71 74 74 74 71 68 68 65 65 71 58 58 65 65 71 58 71 71 65 58 58 61 48 48 48 45 42 35 29 35 39 35 32 29 29 26 29 19 29 26
68 74 74 74 71 71 71 68 68 61 58 58 58 68 61 65 71 55 71 61 68 61 58 58 58 65 58 45 42 39 39 35 39 23 35 29 32 29 29 26 29 23 16
58 65 68 71 65 65 65 61 65 68 65 58 61 65 61 61 68 68 68 58 65 58 55 61 61 58 55 48 45 45 39 19 35 35 39 32 32 29 23 23 23 19 16
58 68 71 71 71 68 68 61 65 61 58 61 61 58 65 58 61 58 58 58 61 58 61 55 55 58 55 52 55 55 52 45 35 29 29 29 23 19 26 13 19 16 23
55 61 71 71 68 71 71 71 71 68 71 65 61 58 65 58 52 48 48 52 55 61 55 58 55 55 55 52 48 52 42 45 35 23 19 26 35 29 26 23 16 23 23
58 58 71 71 71 71 68 68 68 71 68 61 61 65 65 65 55 52 45 48 52 55 58 58 58 55 52 55 52 45 39 39 39 26 19 19 16 32 29 23 23 23 23
Height
5890 5888 5887 5886 5885 5884 5882 5881 5880 5880 5879 5878 5877 5877 5877 5876 5876 5875 5875 5875 5875 5875 5875 5875 5875 5875 5875 5875 5876 5876 5876 5877 5877 5878 5879 5879 5879 5880 5881 5881 5882 5884 5885
5890 5889 5888 5887 5885 5884 5883 5882 5881 5880 5879 5878 5877 5877 5876 5876 5876 5875 5875 5875 5875 5875 5874 5875 5875 5875 5875 5875 5875 5875 5876 5876 5877 5877 5878 5878 5879 5880 5881 5881 5882 5883 5884
5891 5889 5888 5887 5886 5884 5883 5882 5881 5880 5879 5878 5878 5877 5877 5876 5876 5875 5875 5874 5874 5874 5874 5874 5874 5874 5874 5874 5874 5875 5875 5875 5876 5876 5877 5877 5878 5879 5880 5880 5881 5882 5883
5891 5890 5889 5887 5886 5885 5884 5882 5881 5880 5879 5879 5878 5877 5877 5876 5875 5875 5874 5874 5873 5874 5873 5873 5873 5874 5874 5874 5874 5874 5874 5874 5875 5875 5876 5876 5877 5878 5878 5879 5880 5881 5882
5891 5890 5889 5887 5886 5885 5884 5883 5882 5880 5880 5879 5878 5877 5876 5876 5875 5874 5874 5873 5872 5873 5873 5873 5873 5873 5873 5873 5873 5873 5873 5873 5874 5874 5875 5875 5876 5876 5877 5878 5879 5880 5881
5892 5890 5889 5888 5887 5885 5884 5883 5882 5881 5880 5879 5878 5877 5876 5876 5875 5874 5873 5871 5870 5871 5872 5872 5872 5872 5872 5872 5872 5872 5872 5872 5873 5873 5874 5874 5875 5875 5876 5877 5878 5879 5880
5892 5890 5889 5888 5887 5885 5884 5883 5882 5881 5880 5879 5878 5877 5876 5876 5875 5874 5873 5872 5871 5872 5872 5872 5871 5871 5871 5871 5871 5871 5871 5871 5871 5872 5872 5873 5874 5875 5875 5876 5877 5877 5878
5892 5890 5889 5888 5887 5886 5884 5883 5882 5881 5880 5879 5878 5877 5876 5876 5875 5874 5873 5872 5872 5872 5871 5871 5871 5871 5870 5870 5870 5870 5870 5870 5870 5870 5871 5871 5872 5873 5874 5875 5875 5876 5877
5892 5890 5889 5888 5887 5886 5884 5883 5882 5881 5880 5879 5878 5877 5876 5876 5875 5874 5873 5873 5872 5871 5871 5871 5870 5870 5870 5869 5869 5869 5869 5869 5869 5870 5869 5869 5870 5872 5873 5874 5874 5875 5876
5892 5890 5889 5887 5886 5885 5884 5883 5882 5881 5880 5879 5878 5877 5876 5875 5875 5874 5873 5873 5872 5871 5871 5870 5870 5870 5869 5869 5868 5868 5868 5868 5869 5869 5868 5868 5869 5870 5871 5872 5873 5874 5875
5891 5890 5889 5887 5886 5885 5884 5883 5882 5880 5879 5878 5877 5877 5876 5875 5875 5874 5873 5872 5872 5871 5870 5870 5870 5869 5869 5868 5868 5867 5868 5868 5868 5868 5868 5868 5867 5869 5870 5871 5872 5873 5874
5891 5890 5888 5887 5886 5885 5884 5882 5881 5880 5879 5878 5877 5876 5875 5875 5874 5873 5873 5872 5871 5871 5870 5870 5869 5869 5868 5868 5868 5867 5867 5867 5867 5867 5867 5867 5867 5868 5869 5870 5871 5872 5872
5891 5890 5888 5887 5886 5885 5883 5882 5881 5880 5879 5877 5876 5875 5875 5874 5874 5873 5872 5871 5871 5870 5870 5869 5868 5868 5868 5867 5867 5867 5867 5867 5867 5867 5867 5867 5868 5868 5869 5869 5870 5871 5871
5890 5889 5888 5887 5886 5884 5883 5882 5880 5879 5878 5877 5876 5875 5874 5874 5873 5872 5872 5871 5870 5870 5869 5868 5868 5867 5867 5867 5867 5867 5866 5866 5866 5866 5866 5867 5868 5868 5868 5869 5869 5870 5870
5889 5888 5887 5886 5885 5884 5883 5881 5880 5879 5878 5876 5875 5875 5874 5873 5872 5871 5871 5870 5869 5869 5868 5868 5867 5867 5866 5866 5866 5866 5866 5866 5866 5866 5866 5867 5867 5867 5868 5868 5868 5869 5869
5887 5887 5886 5885 5884 5883 5882 5881 5879 5878 5877 5876 5875 5874 5873 5872 5872 5871 5870 5869 5869 5868 5867 5867 5866 5866 5865 5865 5865 5865 5865 5865 5865 5865 5865 5866 5866 5866 5866 5867 5867 5868 5868
5887 5886 5885 5884 5883 5882 5881 5880 5879 5877 5876 5875 5874 5873 5873 5872 5871 5870 5870 5869 5868 5867 5866 5866 5865 5865 5865 5864 5864 5864 5864 5864 5864 5864 5864 5865 5865 5865 5865 5866 5866 5867 5867
5886 5885 5884 5883 5882 5881 5880 5879 5878 5877 5876 5875 5873 5873 5872 5871 5870 5869 5868 5868 5867 5867 5866 5865 5864 5864 5863 5863 5863 5863 5863 5863 5863 5863 5863 5863 5863 5863 5864 5864 5865 5865 5866
5884 5884 5883 5882 5881 5880 5878 5877 5876 5875 5874 5873 5873 5872 5871 5870 5869 5868 5867 5867 5866 5866 5865 5864 5864 5863 5863 5862 5862 5863 5862 5862 5862 5862 5862 5862 5862 5862 5863 5863 5863 5864 5864
5883 5882 5881 5880 5879 5878 5877 5876 5875 5874 5873 5872 5871 5870 5870 5869 5868 5867 5866 5866 5866 5865 5864 5864 5863 5863 5862 5862 5862 5862 5862 5862 5862 5861 5861 5861 5861 5861 5861 5861 5861 5862 5862
5881 5880 5879 5878 5877 5876 5875 5874 5873 5872 5871 5870 5870 5869 5868 5868 5867 5866 5865 5865 5865 5864 5863 5863 5862 5862 5861 5861 5861 5861 5860 5860 5860 5860 5860 5859 5859 5859 5859 5859 5860 5860 5860
5878 5878 5877 5876 5875 5874 5873 5872 5871 5870 5869 5868 5867 5867 5866 5866 5865 5865 5864 5864 5863 5863 5862 5862 5861 5861 5860 5860 5859 5859 5859 5859 5859 5858 5858 5858 5858 5857 5858 5858 5858 5858 5858
5876 5875 5874 5874 5873 5872 5871 5869 5868 5867 5866 5866 5865 5865 5864 5864 5863 5862 5862 5862 5862 5861 5861 5860 5859 5859 5859 5859 5858 5858 5857 5857 5857 5857 5856 5857 5856 5856 5856 5856 5856 5856 5856
5873 5873 5872 5871 5870 5869 5868 5867 5866 5865 5865 5864 5863 5863 5862 5861 5861 5860 5860 5860 5860 5859 5859 5858 5858 5858 5857 5857 5857 5856 5856 5855 5856 5855 5855 5855 5855 5855 5855 5855 5854 5854 5855
5870 5869 5869 5868 5867 5866 5865 5864 5863 5863 5862 5861 5860 5860 5859 5859 5858 5858 5858 5858 5857 5857 5857 5857 5856 5856 5856 5856 5855 5854 5854 5853 5853 5853 5853 5854 5854 5853 5853 5853 5853 5853 5853
5866 5866 5865 5865 5864 5863 5862 5861 5861 5860 5859 5859 5858 5857 5856 5856 5856 5856 5856 5855 5855 5855 5855 5855 5855 5855 5854 5854 5853 5852 5852 5851 5851 5851 5851 5851 5852 5851 5851 5851 5851 5851 5851
Wind_Speed
9 9 9 9 8 7 7 6 5 5 4 3 2 1 1 2 2 2 2 1 2 2 3 4 5 5 5 6 6 6 7 7 7 7 7 7 7 7 6 7 6 6 6
9 9 9 9 8 7 7 7 6 5 4 3 2 2 2 2 1 2 2 2 2 2 2 3 4 5 5 5 6 6 7 7 8 8 8 7 7 7 7 6 6 6 6
9 9 8 9 8 7 7 7 6 5 5 4 3 2 2 2 2 3 3 2 2 3 3 3 4 4 5 6 6 7 7 6 7 8 8 8 8 8 7 6 6 6 6
9 9 8 9 8 7 7 6 6 6 5 5 3 3 3 3 3 3 3 3 3 3 4 4 4 4 5 5 6 7 7 7 7 7 8 8 8 7 7 7 7 6 6
9 9 8 8 8 7 7 6 6 6 5 5 4 3 3 4 4 4 4 4 4 4 4 4 4 4 5 6 6 7 8 8 8 8 7 7 8 8 7 8 7 7 7
9 9 9 8 8 8 7 7 6 6 5 5 4 4 3 4 4 4 4 4 4 4 4 4 5 5 5 6 7 7 7 7 7 7 6 7 7 6 7 7 8 7 7
10 9 9 9 9 8 7 6 6 6 5 5 4 4 4 4 4 4 4 3 2 3 3 3 4 4 4 5 5 6 6 6 6 6 6 6 6 5 6 6 6 7 7
10 10 9 9 9 9 8 7 6 6 6 5 5 5 4 4 3 4 4 3 2 2 2 2 2 3 3 3 4 5 5 5 6 6 6 6 6 6 6 6 7 7 8
10 10 10 9 9 9 8 7 7 6 6 6 5 5 5 4 4 4 4 3 2 2 2 2 2 3 3 3 3 4 5 6 6 6 5 6 6 6 6 6 7 8 8
10 10 10 10 10 9 8 8 7 7 6 6 6 5 5 5 4 4 4 3 3 3 2 2 3 3 4 4 4 4 5 6 7 7 4 4 6 6 6 6 7 7 7
11 10 10 10 9 9 9 9 8 8 7 7 6 5 5 5 4 4 4 4 4 4 3 3 3 3 4 4 4 5 6 6 7 7 5 5 6 6 5 5 6 7 8
10 10 11 11 10 10 9 9 9 8 7 7 6 5 5 5 4 5 5 5 5 4 4 4 4 4 4 4 4 4 5 6 6 6 6 5 4 5 5 5 5 6 7
10 11 11 11 11 10 9 9 9 8 8 7 7 6 5 5 5 5 5 6 6 5 5 5 4 4 4 4 5 5 5 6 6 5 5 5 5 5 5 5 6 6 6
11 11 11 11 11 11 10 9 9 8 8 8 7 6 5 5 5 5 6 6 6 6 6 6 6 5 5 5 5 5 5 5 5 5 4 4 4 4 5 5 6 6 5
11 11 11 11 12 12 11 10 10 9 8 8 7 6 5 5 5 6 6 6 6 6 6 6 6 6 6 6 6 6 5 6 6 6 5 5 5 5 6 6 6 6 6
12 11 12 12 13 12 12 11 10 10 8 8 7 6 5 5 5 6 6 6 6 6 7 6 6 6 6 6 6 6 6 6 5 6 6 5 6 6 6 6 6 6 7
12 12 12 13 13 13 12 11 11 10 9 8 8 7 6 6 6 7 7 6 6 6 7 7 7 6 7 7 6 6 5 6 6 6 7 7 7 7 7 7 7 7 6
13 13 13 14 14 13 13 12 11 10 10 9 8 8 7 7 7 7 7 7 7 7 6 6 7 7 8 7 6 6 6 6 6 6 7 7 7 7 7 7 7 6 6
13 14 14 14 15 15 14 13 12 12 11 9 9 8 8 7 7 7 7 7 6 7 7 7 7 7 7 7 6 6 6 6 6 6 6 7 7 7 8 7 7 7 7
14 14 14 14 15 15 14 14 13 13 11 10 10 9 8 8 8 8 8 7 7 7 7 7 7 7 7 7 7 6 6 7 7 7 7 7 8 8 8 7 8 8 8
15 14 14 14 15 15 14 14 14 13 12 11 10 10 9 9 9 9 9 8 8 8 8 8 8 8 8 8 8 7 7 8 8 8 8 9 9 8 8 8 8 7 7
15 15 15 15 16 16 15 15 14 13 12 11 11 10 10 10 11 10 10 9 9 9 9 9 9 9 9 9 9 9 8 8 8 9 9 9 9 8 8 7 7 7 7
16 16 16 16 17 17 16 16 14 13 12 12 11 11 11 11 12 11 10 10 10 10 10 10 10 10 10 10 9 9 9 9 9 9 9 9 9 8 8 7 6 7 7
17 17 17 17 17 17 17 16 15 14 13 13 13 13 12 12 12 12 11 11 10 10 10 10 10 10 10 10 10 9 9 10 10 9 10 9 8 8 8 7 7 7 7
18 17 17 17 17 17 16 15 15 14 14 14 14 13 13 12 12 12 12 12 11 10 10 10 10 10 10 10 11 11 10 11 11 10 9 9 9 8 8 7 8 8 8
18 18 18 17 17 16 15 15 15 14 15 15 15 14 13 13 12 12 12 11 11 11 10 10 10 10 10 11 11 11 11 11 11 10 10 9 9 9 8 8 8 9 9
Wind_Direction
8 9 9 7 6 6 4 0 359 355 348 335 314 313 308 286 280 277 266 272 258 250 231 227 226 222 225 230 230 229 226 227 229 232 233 237 243 241 236 228 228 238 237
6 10 9 8 5 3 3 360 358 355 353 346 323 322 316 297 282 281 273 263 255 259 253 241 240 240 239 239 237 235 233 230 231 235 233 235 240 244 238 230 237 238 235
5 9 7 5 4 2 2 359 355 352 349 344 330 322 313 299 291 292 281 280 271 264 255 245 248 255 250 245 243 242 241 243 243 236 237 240 244 242 236 235 237 238 238
3 6 6 4 1 360 359 356 354 352 348 345 337 328 316 303 299 300 293 284 275 266 261 253 250 256 257 256 251 246 243 243 247 245 244 244 242 241 237 232 238 242 241
358 1 1 1 359 359 358 352 346 345 344 341 338 331 321 313 309 304 302 286 270 264 264 260 256 258 257 257 255 251 245 240 247 249 249 246 246 246 237 232 238 242 243
354 359 358 356 355 353 351 348 344 341 342 343 339 334 329 323 317 314 315 301 265 256 268 268 265 260 261 258 253 250 244 241 245 246 247 247 255 254 248 242 244 246 252
351 354 355 354 354 354 352 345 344 345 343 342 341 339 338 330 318 313 321 319 280 269 276 280 281 267 268 265 252 245 242 241 247 246 245 251 250 249 250 249 246 247 244
345 346 351 351 352 348 351 345 342 344 346 345 341 339 343 343 334 328 332 336 323 296 288 291 294 295 268 268 266 257 248 247 246 245 243 246 246 244 245 252 250 246 238
342 342 347 347 347 346 346 346 341 339 342 342 337 336 338 338 336 331 332 340 335 317 300 297 294 294 281 276 274 272 260 253 258 253 250 242 241 238 243 252 251 248 247
340 340 343 343 345 347 344 340 339 337 337 338 334 333 335 333 334 333 335 339 332 325 297 293 304 298 295 286 275 268 265 263 271 274 265 240 242 242 239 247 249 248 248
338 338 340 342 343 343 341 339 336 336 338 335 331 329 328 328 331 334 336 334 325 320 307 302 307 313 305 295 284 269 270 272 269 282 273 260 245 242 242 243 251 251 249
335 339 340 340 340 340 339 338 338 334 336 335 332 328 322 324 326 328 328 326 322 314 307 306 298 301 296 289 289 276 276 282 281 283 277 272 261 251 245 248 257 261 257
334 335 335 336 337 337 336 335 336 331 330 332 329 328 324 324 322 322 317 319 317 312 310 310 311 301 292 280 282 286 288 288 287 283 286 289 276 263 257 253 253 260 259
329 331 333 334 335 334 334 336 334 327 328 331 326 325 327 324 320 318 318 315 313 309 305 303 304 306 296 283 280 283 292 293 288 286 278 280 274 281 276 269 264 262 263
322 326 328 329 331 330 329 331 333 332 326 327 329 326 325 329 328 323 320 321 320 318 316 309 301 304 310 299 284 277 278 293 291 287 286 283 282 287 291 283 277 275 271
317 320 322 324 326 326 324 324 328 328 325 323 323 321 323 326 324 322 323 323 321 318 317 312 310 309 309 307 297 288 284 292 288 279 284 286 282 279 283 283 279 283 282
311 314 316 319 319 320 318 319 323 327 323 317 317 318 318 320 323 323 320 321 322 322 318 310 306 306 308 306 301 300 297 294 287 279 281 280 278 277 281 283 283 285 283
306 308 311 314 315 314 313 314 317 320 320 319 316 314 313 314 317 318 318 319 319 322 321 317 312 303 302 299 296 299 302 301 298 288 285 288 283 280 279 280 276 278 277
302 303 307 311 311 311 309 308 309 311 312 315 314 310 309 308 309 313 320 320 321 323 318 315 314 307 307 300 293 298 299 298 299 291 286 289 291 287 286 278 272 274 280
299 301 303 306 308 310 307 303 302 302 303 307 307 304 303 303 305 305 307 314 316 316 312 312 312 310 308 305 300 298 294 292 288 284 286 288 286 286 290 284 270 271 276
296 299 300 302 306 308 307 304 299 297 297 298 297 296 295 296 300 301 302 303 306 310 305 302 307 307 305 302 299 292 292 290 286 282 283 286 285 286 288 288 279 274 278
296 300 299 301 304 305 304 301 300 295 293 296 295 292 292 291 293 295 296 298 297 299 301 300 299 301 301 301 298 296 292 289 294 291 288 289 291 292 292 290 285 284 283
295 298 299 300 301 302 302 301 300 299 295 293 292 290 291 293 293 293 292 293 294 294 297 300 297 298 300 298 296 295 289 283 294 293 291 290 290 292 297 291 284 288 287
292 294 297 298 299 300 300 300 300 298 296 295 294 292 289 292 294 294 293 292 293 294 299 301 299 298 300 300 299 297 294 294 297 297 295 290 290 295 296 292 288 289 287
287 291 294 297 298 297 298 299 299 296 294 294 294 292 288 288 288 290 294 295 293 296 299 305 306 304 301 302 303 299 294 297 297 292 294 288 288 292 297 295 290 290 288
283 287 291 294 295 295 295 296 297 296 295 295 295 293 288 287 286 288 289 291 292 295 297 300 302 303 306 306 304 300 294 291 290 287 292 290 289 289 289 291 289 289 287